AEROCUBE 8B

Last updated on Tue Jul 06 2021 15:45:19 GMT+0000 (Coordinated Universal Time)

1 40660U 15025K 21186.58605918 .00081023 12960-4 33646-3 0 9990 2 40660 55.0009 291.4921 0050594 104.5098 256.1571 15.83877794103634

Satellite not in orbit